Year,Month,Day,Hour,Minute,Value (Times are PST for temperature in C)
2007,06,05,00,00,15.30
2007,06,05,00,01,15.30
2007,06,05,00,02,15.30
2007,06,05,00,03,15.30
2007,06,05,00,04,15.20
2007,06,05,00,05,15.20
2007,06,05,00,06,15.20
2007,06,05,00,07,15.10
2007,06,05,00,08,15.10
2007,06,05,00,09,15.10
2007,06,05,00,10,15.00
2007,06,05,00,11,15.00
2007,06,05,00,12,15.00
2007,06,05,00,13,15.00
2007,06,05,00,14,15.00
2007,06,05,00,15,15.00
2007,06,05,00,16,15.00
2007,06,05,00,17,15.00
2007,06,05,00,18,15.00
2007,06,05,00,19,15.00
2007,06,05,00,20,15.00
2007,06,05,00,21,15.00
2007,06,05,00,22,15.00
2007,06,05,00,23,15.00
2007,06,05,00,24,15.00
2007,06,05,00,25,15.00
2007,06,05,00,26,14.90
2007,06,05,00,27,14.90
2007,06,05,00,28,15.00
2007,06,05,00,29,15.00
2007,06,05,00,30,15.00
2007,06,05,00,31,14.90
2007,06,05,00,32,14.90
2007,06,05,00,33,15.00
2007,06,05,00,34,15.00
2007,06,05,00,35,15.00
2007,06,05,00,36,15.00
2007,06,05,00,37,15.00
2007,06,05,00,38,15.00
2007,06,05,00,39,15.00
2007,06,05,00,40,15.00
2007,06,05,00,41,15.00
2007,06,05,00,42,15.00
2007,06,05,00,43,15.00
2007,06,05,00,44,15.00
2007,06,05,00,45,15.00
2007,06,05,00,46,15.00
2007,06,05,00,47,15.00
2007,06,05,00,48,15.00
2007,06,05,00,49,15.00
2007,06,05,00,50,15.00
2007,06,05,00,51,15.00
2007,06,05,00,52,15.00
2007,06,05,00,53,15.00
2007,06,05,00,54,15.00
2007,06,05,00,55,15.00
2007,06,05,00,56,15.00
2007,06,05,00,57,15.00
2007,06,05,00,58,15.00
2007,06,05,00,59,15.00
2007,06,05,01,00,15.00
2007,06,05,01,01,15.00
2007,06,05,01,02,15.00
2007,06,05,01,03,15.00
2007,06,05,01,04,15.00
2007,06,05,01,05,15.00
2007,06,05,01,06,15.00
2007,06,05,01,07,15.00
2007,06,05,01,08,15.00
2007,06,05,01,09,15.00
2007,06,05,01,10,15.00
2007,06,05,01,11,15.00
2007,06,05,01,12,15.00
2007,06,05,01,13,15.00
2007,06,05,01,14,15.00
2007,06,05,01,15,15.00
2007,06,05,01,16,15.00
2007,06,05,01,17,15.00
2007,06,05,01,18,15.00
2007,06,05,01,19,15.00
2007,06,05,01,20,14.90
2007,06,05,01,21,14.90
2007,06,05,01,22,14.90
2007,06,05,01,23,14.90
2007,06,05,01,24,14.90
2007,06,05,01,25,14.80
2007,06,05,01,26,14.80
2007,06,05,01,27,14.80
2007,06,05,01,28,14.70
2007,06,05,01,29,14.60
2007,06,05,01,30,14.40
2007,06,05,01,31,14.30
2007,06,05,01,32,14.30
2007,06,05,01,33,14.20
2007,06,05,01,34,14.10
2007,06,05,01,35,14.10
2007,06,05,01,36,14.10
2007,06,05,01,37,14.00
2007,06,05,01,38,14.00
2007,06,05,01,39,14.00
2007,06,05,01,40,14.00
2007,06,05,01,41,14.00
2007,06,05,01,42,14.00
2007,06,05,01,43,14.00
2007,06,05,01,44,14.00
2007,06,05,01,45,14.00
2007,06,05,01,46,14.00
2007,06,05,01,47,14.00
2007,06,05,01,48,14.00
2007,06,05,01,49,14.00
2007,06,05,01,50,14.00
2007,06,05,01,51,13.90
2007,06,05,01,52,13.90
2007,06,05,01,53,13.90
2007,06,05,01,54,13.90
2007,06,05,01,55,13.80
2007,06,05,01,56,13.80
2007,06,05,01,57,13.80
2007,06,05,01,58,13.70
2007,06,05,01,59,13.60
2007,06,05,02,00,13.60
2007,06,05,02,01,13.50
2007,06,05,02,02,13.40
2007,06,05,02,03,13.40
2007,06,05,02,04,13.30
2007,06,05,02,05,13.30
2007,06,05,02,06,13.40
2007,06,05,02,07,13.40
2007,06,05,02,08,13.40
2007,06,05,02,09,13.40
2007,06,05,02,10,13.40
2007,06,05,02,11,13.40
2007,06,05,02,12,13.30
2007,06,05,02,13,13.30
2007,06,05,02,14,13.30
2007,06,05,02,15,13.30
2007,06,05,02,16,13.30
2007,06,05,02,17,13.30
2007,06,05,02,18,13.30
2007,06,05,02,19,13.20
2007,06,05,02,20,13.20
2007,06,05,02,21,13.20
2007,06,05,02,22,13.20
2007,06,05,02,23,13.10
2007,06,05,02,24,13.10
2007,06,05,02,25,13.10
2007,06,05,02,26,13.00
2007,06,05,02,27,13.00
2007,06,05,02,28,12.90
2007,06,05,02,29,12.90
2007,06,05,02,30,12.90
2007,06,05,02,31,12.90
2007,06,05,02,32,12.90
2007,06,05,02,33,12.90
2007,06,05,02,34,12.80
2007,06,05,02,35,12.80
2007,06,05,02,36,12.80
2007,06,05,02,37,12.80
2007,06,05,02,38,12.80
2007,06,05,02,39,12.80
2007,06,05,02,40,12.70
2007,06,05,02,41,12.70
2007,06,05,02,42,12.70
2007,06,05,02,43,12.60
2007,06,05,02,44,12.60
2007,06,05,02,45,12.60
2007,06,05,02,46,12.60
2007,06,05,02,47,12.60
2007,06,05,02,48,12.60
2007,06,05,02,49,12.70
2007,06,05,02,50,12.80
2007,06,05,02,51,12.80
2007,06,05,02,52,12.70
2007,06,05,02,53,12.60
2007,06,05,02,54,12.50
2007,06,05,02,55,12.50
2007,06,05,02,56,12.50
2007,06,05,02,57,12.50
2007,06,05,02,58,12.50
2007,06,05,02,59,12.40
2007,06,05,03,00,12.40
2007,06,05,03,01,12.30
2007,06,05,03,02,12.20
2007,06,05,03,03,12.20
2007,06,05,03,04,12.20
2007,06,05,03,05,12.20
2007,06,05,03,06,12.20
2007,06,05,03,07,12.10
2007,06,05,03,08,12.00
2007,06,05,03,09,11.90
2007,06,05,03,10,11.80
2007,06,05,03,11,11.70
2007,06,05,03,12,11.70
2007,06,05,03,13,11.80
2007,06,05,03,14,11.80
2007,06,05,03,15,11.90
2007,06,05,03,16,11.90
2007,06,05,03,17,11.90
2007,06,05,03,18,11.90
2007,06,05,03,19,11.90
2007,06,05,03,20,11.80
2007,06,05,03,21,11.80
2007,06,05,03,22,11.80
2007,06,05,03,23,11.70
2007,06,05,03,24,11.60
2007,06,05,03,25,11.50
2007,06,05,03,26,11.40
2007,06,05,03,27,11.40
2007,06,05,03,28,11.30
2007,06,05,03,29,11.30
2007,06,05,03,30,11.20
2007,06,05,03,31,11.20
2007,06,05,03,32,11.20
2007,06,05,03,33,11.20
2007,06,05,03,34,11.10
2007,06,05,03,35,11.10
2007,06,05,03,36,11.10
2007,06,05,03,37,11.10
2007,06,05,03,38,11.10
2007,06,05,03,39,11.10
2007,06,05,03,40,11.00
2007,06,05,03,41,11.00
2007,06,05,03,42,11.00
2007,06,05,03,43,11.00
2007,06,05,03,44,11.00
2007,06,05,03,45,11.00
2007,06,05,03,46,11.00
2007,06,05,03,47,11.00
2007,06,05,03,48,11.00
2007,06,05,03,49,11.00
2007,06,05,03,50,11.00
2007,06,05,03,51,11.00
2007,06,05,03,52,11.00
2007,06,05,03,53,11.10
2007,06,05,03,54,11.10
2007,06,05,03,55,11.10
2007,06,05,03,56,11.10
2007,06,05,03,57,11.10
2007,06,05,03,58,11.10
2007,06,05,03,59,11.10
2007,06,05,04,00,11.10
2007,06,05,04,01,11.00
2007,06,05,04,02,11.00
2007,06,05,04,03,11.00
2007,06,05,04,04,11.00
2007,06,05,04,05,11.00
2007,06,05,04,06,11.00
2007,06,05,04,07,11.00
2007,06,05,04,08,11.00
2007,06,05,04,09,10.90
2007,06,05,04,10,10.90
2007,06,05,04,11,10.90
2007,06,05,04,12,10.80
2007,06,05,04,13,10.80
2007,06,05,04,14,10.80
2007,06,05,04,15,10.80
2007,06,05,04,16,10.70
2007,06,05,04,17,10.70
2007,06,05,04,18,10.70
2007,06,05,04,19,10.70
2007,06,05,04,20,10.70
2007,06,05,04,21,10.70
2007,06,05,04,22,10.70
2007,06,05,04,23,10.70
2007,06,05,04,24,10.80
2007,06,05,04,25,10.80
2007,06,05,04,26,10.80
2007,06,05,04,27,10.80
2007,06,05,04,28,10.80
2007,06,05,04,29,10.80
2007,06,05,04,30,10.80
2007,06,05,04,31,10.70
2007,06,05,04,32,10.70
2007,06,05,04,33,10.60
2007,06,05,04,34,10.60
2007,06,05,04,35,10.60
2007,06,05,04,36,10.60
2007,06,05,04,37,10.60
2007,06,05,04,38,10.60
2007,06,05,04,39,10.60
2007,06,05,04,40,10.60
2007,06,05,04,41,10.70
2007,06,05,04,42,10.80
2007,06,05,04,43,10.80
2007,06,05,04,44,10.70
2007,06,05,04,45,10.70
2007,06,05,04,46,10.70
2007,06,05,04,47,10.70
2007,06,05,04,48,10.70
2007,06,05,04,49,10.70
2007,06,05,04,50,10.80
2007,06,05,04,51,10.80
2007,06,05,04,52,10.80
2007,06,05,04,53,10.80
2007,06,05,04,54,10.80
2007,06,05,04,55,10.80
2007,06,05,04,56,10.80
2007,06,05,04,57,10.80
2007,06,05,04,58,10.80
2007,06,05,04,59,10.80
2007,06,05,05,00,10.80
2007,06,05,05,01,10.80
2007,06,05,05,02,10.80
2007,06,05,05,03,10.80
2007,06,05,05,04,10.80
2007,06,05,05,05,10.80
2007,06,05,05,06,10.80
2007,06,05,05,07,10.80
2007,06,05,05,08,10.80
2007,06,05,05,09,10.80
2007,06,05,05,10,10.80
2007,06,05,05,11,10.70
2007,06,05,05,12,10.70
2007,06,05,05,13,10.70
2007,06,05,05,14,10.70
2007,06,05,05,15,10.70
2007,06,05,05,16,10.80
2007,06,05,05,17,10.90
2007,06,05,05,18,11.00
2007,06,05,05,19,11.10
2007,06,05,05,20,11.10
2007,06,05,05,21,11.10
2007,06,05,05,22,11.00
2007,06,05,05,23,11.00
2007,06,05,05,24,11.10
2007,06,05,05,25,11.20
2007,06,05,05,26,11.20
2007,06,05,05,27,11.30
2007,06,05,05,28,11.30
2007,06,05,05,29,11.30
2007,06,05,05,30,11.30
2007,06,05,05,31,11.30
2007,06,05,05,32,11.30
2007,06,05,05,33,11.30
2007,06,05,05,34,11.30
2007,06,05,05,35,11.20
2007,06,05,05,36,11.20
2007,06,05,05,37,11.10
2007,06,05,05,38,11.10
2007,06,05,05,39,11.10
2007,06,05,05,40,11.10
2007,06,05,05,41,11.10
2007,06,05,05,42,11.00
2007,06,05,05,43,11.00
2007,06,05,05,44,11.00
2007,06,05,05,45,11.00
2007,06,05,05,46,10.90
2007,06,05,05,47,10.90
2007,06,05,05,48,11.00
2007,06,05,05,49,11.00
2007,06,05,05,50,11.10
2007,06,05,05,51,11.10
2007,06,05,05,52,11.10
2007,06,05,05,53,11.10
2007,06,05,05,54,11.20
2007,06,05,05,55,11.30
2007,06,05,05,56,11.30
2007,06,05,05,57,11.30
2007,06,05,05,58,11.30
2007,06,05,05,59,11.30
2007,06,05,06,00,11.30
2007,06,05,06,01,11.30
2007,06,05,06,02,11.30
2007,06,05,06,03,11.30
2007,06,05,06,04,11.20
2007,06,05,06,05,11.10
2007,06,05,06,06,11.10
2007,06,05,06,07,11.20
2007,06,05,06,08,11.20
2007,06,05,06,09,11.20
2007,06,05,06,10,11.20
2007,06,05,06,11,11.10
2007,06,05,06,12,11.10
2007,06,05,06,13,11.00
2007,06,05,06,14,11.00
2007,06,05,06,15,10.90
2007,06,05,06,16,10.90
2007,06,05,06,17,11.00
2007,06,05,06,18,11.00
2007,06,05,06,19,11.00
2007,06,05,06,20,11.10
2007,06,05,06,21,11.10
2007,06,05,06,22,11.10
2007,06,05,06,23,11.10
2007,06,05,06,24,11.10
2007,06,05,06,25,11.20
2007,06,05,06,26,11.30
2007,06,05,06,27,11.30
2007,06,05,06,28,11.40
2007,06,05,06,29,11.50
2007,06,05,06,30,11.50
2007,06,05,06,31,11.50
2007,06,05,06,32,11.60
2007,06,05,06,33,11.60
2007,06,05,06,34,11.70
2007,06,05,06,35,11.80
2007,06,05,06,36,11.80
2007,06,05,06,37,11.80
2007,06,05,06,38,11.80
2007,06,05,06,39,11.80
2007,06,05,06,40,11.80
2007,06,05,06,41,11.80
2007,06,05,06,42,11.80
2007,06,05,06,43,11.80
2007,06,05,06,44,11.80
2007,06,05,06,45,11.80
2007,06,05,06,46,11.80
2007,06,05,06,47,11.80
2007,06,05,06,48,11.80
2007,06,05,06,49,11.80
2007,06,05,06,50,11.80
2007,06,05,06,51,11.90
2007,06,05,06,52,11.90
2007,06,05,06,53,11.90
2007,06,05,06,54,12.00
2007,06,05,06,55,12.00
2007,06,05,06,56,12.00
2007,06,05,06,57,12.00
2007,06,05,06,58,12.10
2007,06,05,06,59,12.10
2007,06,05,07,00,12.10
2007,06,05,07,01,12.10
2007,06,05,07,02,12.20
2007,06,05,07,03,12.30
2007,06,05,07,04,12.30
2007,06,05,07,05,12.40
2007,06,05,07,06,12.40
2007,06,05,07,07,12.40
2007,06,05,07,08,12.40
2007,06,05,07,09,12.40
2007,06,05,07,10,12.40
2007,06,05,07,11,12.40
2007,06,05,07,12,12.40
2007,06,05,07,13,12.40
2007,06,05,07,14,12.40
2007,06,05,07,15,12.40
2007,06,05,07,16,12.40
2007,06,05,07,17,12.50
2007,06,05,07,18,12.50
2007,06,05,07,19,12.50
2007,06,05,07,20,12.50
2007,06,05,07,21,12.50
2007,06,05,07,22,12.60
2007,06,05,07,23,12.60
2007,06,05,07,24,12.60
2007,06,05,07,25,12.60
2007,06,05,07,26,12.60
2007,06,05,07,27,12.60
2007,06,05,07,28,12.70
2007,06,05,07,29,12.70
2007,06,05,07,30,12.70
2007,06,05,07,31,12.80
2007,06,05,07,32,12.80
2007,06,05,07,33,12.80
2007,06,05,07,34,12.80
2007,06,05,07,35,12.90
2007,06,05,07,36,12.90
2007,06,05,07,37,12.90
2007,06,05,07,38,13.00
2007,06,05,07,39,13.00
2007,06,05,07,40,13.10
2007,06,05,07,41,13.10
2007,06,05,07,42,13.10
2007,06,05,07,43,13.10
2007,06,05,07,44,13.20
2007,06,05,07,45,13.20
2007,06,05,07,46,13.30
2007,06,05,07,47,13.30
2007,06,05,07,48,13.30
2007,06,05,07,49,13.40
2007,06,05,07,50,13.40
2007,06,05,07,51,13.50
2007,06,05,07,52,13.50
2007,06,05,07,53,13.60
2007,06,05,07,54,13.60
2007,06,05,07,55,13.60
2007,06,05,07,56,13.60
2007,06,05,07,57,13.70
2007,06,05,07,58,13.70
2007,06,05,07,59,13.70
2007,06,05,08,00,13.70
2007,06,05,08,01,13.70
2007,06,05,08,02,13.70
2007,06,05,08,03,13.80
2007,06,05,08,04,13.80
2007,06,05,08,05,13.80
2007,06,05,08,06,13.80
2007,06,05,08,07,13.80
2007,06,05,08,08,13.80
2007,06,05,08,09,13.80
2007,06,05,08,10,13.80
2007,06,05,08,11,13.80
2007,06,05,08,12,13.80
2007,06,05,08,13,13.80
2007,06,05,08,14,13.80
2007,06,05,08,15,13.80
2007,06,05,08,16,13.80
2007,06,05,08,17,13.80
2007,06,05,08,18,13.80
2007,06,05,08,19,13.90
2007,06,05,08,20,13.90
2007,06,05,08,21,13.90
2007,06,05,08,22,13.90
2007,06,05,08,23,13.90
2007,06,05,08,24,13.90
2007,06,05,08,25,13.90
2007,06,05,08,26,13.90
2007,06,05,08,27,13.90
2007,06,05,08,28,14.00
2007,06,05,08,29,14.00
2007,06,05,08,30,14.00
2007,06,05,08,31,14.00
2007,06,05,08,32,14.00
2007,06,05,08,33,14.00
2007,06,05,08,34,14.00
2007,06,05,08,35,14.00
2007,06,05,08,36,14.10
2007,06,05,08,37,14.10
2007,06,05,08,38,14.10
2007,06,05,08,39,14.10
2007,06,05,08,40,14.20
2007,06,05,08,41,14.20
2007,06,05,08,42,14.20
2007,06,05,08,43,14.20
2007,06,05,08,44,14.20
2007,06,05,08,45,14.20
2007,06,05,08,46,14.20
2007,06,05,08,47,14.20
2007,06,05,08,48,14.10
2007,06,05,08,49,14.10
2007,06,05,08,50,14.20
2007,06,05,08,51,14.20
2007,06,05,08,52,14.20
2007,06,05,08,53,14.20
2007,06,05,08,54,14.20
2007,06,05,08,55,14.20
2007,06,05,08,56,14.20
2007,06,05,08,57,14.20
2007,06,05,08,58,14.20
2007,06,05,08,59,14.20
2007,06,05,09,00,14.20
2007,06,05,09,01,14.20
2007,06,05,09,02,14.20
2007,06,05,09,03,14.20
2007,06,05,09,04,14.20
2007,06,05,09,05,14.30
2007,06,05,09,06,14.30
2007,06,05,09,07,14.30
2007,06,05,09,08,14.30
2007,06,05,09,09,14.30
2007,06,05,09,10,14.30
2007,06,05,09,11,14.30
2007,06,05,09,12,14.30
2007,06,05,09,13,14.30
2007,06,05,09,14,14.30
2007,06,05,09,15,14.30
2007,06,05,09,16,14.30
2007,06,05,09,17,14.30
2007,06,05,09,18,14.30
2007,06,05,09,19,14.20
2007,06,05,09,20,14.20
2007,06,05,09,21,14.20
2007,06,05,09,22,14.20
2007,06,05,09,23,14.20
2007,06,05,09,24,14.20
2007,06,05,09,25,14.20
2007,06,05,09,26,14.20
2007,06,05,09,27,14.20
2007,06,05,09,28,14.20
2007,06,05,09,29,14.30
2007,06,05,09,30,14.30
2007,06,05,09,31,14.30
2007,06,05,09,32,14.30
2007,06,05,09,33,14.30
2007,06,05,09,34,14.40
2007,06,05,09,35,14.40
2007,06,05,09,36,14.40
2007,06,05,09,37,14.40
2007,06,05,09,38,14.40
2007,06,05,09,39,14.40
2007,06,05,09,40,14.40
2007,06,05,09,41,14.40
2007,06,05,09,42,14.40
2007,06,05,09,43,14.40
2007,06,05,09,44,14.40
2007,06,05,09,45,14.40
2007,06,05,09,46,14.40
2007,06,05,09,47,14.50
2007,06,05,09,48,14.50
2007,06,05,09,49,14.50
2007,06,05,09,50,14.50
2007,06,05,09,51,14.50
2007,06,05,09,52,14.50
2007,06,05,09,53,14.50
2007,06,05,09,54,14.60
2007,06,05,09,55,14.60
2007,06,05,09,56,14.60
2007,06,05,09,57,14.60
2007,06,05,09,58,14.70
2007,06,05,09,59,14.70
2007,06,05,10,00,14.70
2007,06,05,10,01,14.70
2007,06,05,10,02,14.70
2007,06,05,10,03,14.70
2007,06,05,10,04,14.70
2007,06,05,10,05,14.70
2007,06,05,10,06,14.70
2007,06,05,10,07,14.70
2007,06,05,10,08,14.70
2007,06,05,10,09,14.70
2007,06,05,10,10,14.70
2007,06,05,10,11,14.70
2007,06,05,10,12,14.70
2007,06,05,10,13,14.80
2007,06,05,10,14,14.80
2007,06,05,10,15,14.80
2007,06,05,10,16,14.90
2007,06,05,10,17,14.90
2007,06,05,10,18,14.90
2007,06,05,10,19,14.90
2007,06,05,10,20,14.90
2007,06,05,10,21,14.90
2007,06,05,10,22,14.90
2007,06,05,10,23,14.80
2007,06,05,10,24,14.80
2007,06,05,10,25,14.80
2007,06,05,10,26,14.80
2007,06,05,10,27,14.80
2007,06,05,10,28,14.80
2007,06,05,10,29,14.80
2007,06,05,10,30,14.80
2007,06,05,10,31,14.80
2007,06,05,10,32,14.80
2007,06,05,10,33,14.80
2007,06,05,10,34,14.80
2007,06,05,10,35,14.80
2007,06,05,10,36,14.80
2007,06,05,10,37,14.70
2007,06,05,10,38,14.70
2007,06,05,10,39,14.70
2007,06,05,10,40,14.70
2007,06,05,10,41,14.70
2007,06,05,10,42,14.70
2007,06,05,10,43,14.70
2007,06,05,10,44,14.70
2007,06,05,10,45,14.70
2007,06,05,10,46,14.70
2007,06,05,10,47,14.70
2007,06,05,10,48,14.60
2007,06,05,10,49,14.60
2007,06,05,10,50,14.60
2007,06,05,10,51,14.60
2007,06,05,10,52,14.60
2007,06,05,10,53,14.70
2007,06,05,10,54,14.70
2007,06,05,10,55,14.60
2007,06,05,10,56,14.60
2007,06,05,10,57,14.70
2007,06,05,10,58,14.70
2007,06,05,10,59,14.70
2007,06,05,11,00,14.70
2007,06,05,11,01,14.70
2007,06,05,11,02,14.70
2007,06,05,11,03,14.70
2007,06,05,11,04,14.70
2007,06,05,11,05,14.70
2007,06,05,11,06,14.70
2007,06,05,11,07,14.70
2007,06,05,11,08,14.70
2007,06,05,11,09,14.80
2007,06,05,11,10,14.80
2007,06,05,11,11,14.80
2007,06,05,11,12,14.80
2007,06,05,11,13,14.80
2007,06,05,11,14,14.80
2007,06,05,11,15,14.80
2007,06,05,11,16,14.80
2007,06,05,11,17,14.80
2007,06,05,11,18,14.80
2007,06,05,11,19,14.80
2007,06,05,11,20,14.80
2007,06,05,11,21,14.80
2007,06,05,11,22,14.90
2007,06,05,11,23,14.90
2007,06,05,11,24,14.90
2007,06,05,11,25,14.90
2007,06,05,11,26,14.90
2007,06,05,11,27,15.00
2007,06,05,11,28,15.00
2007,06,05,11,29,15.00
2007,06,05,11,30,15.00
2007,06,05,11,31,15.00
2007,06,05,11,32,15.00
2007,06,05,11,33,15.00
2007,06,05,11,34,15.00
2007,06,05,11,35,15.00
2007,06,05,11,36,15.00
2007,06,05,11,37,15.00
2007,06,05,11,38,15.00
2007,06,05,11,39,15.10
2007,06,05,11,40,15.20
2007,06,05,11,41,15.20
2007,06,05,11,42,15.30
2007,06,05,11,43,15.30
2007,06,05,11,44,15.40
2007,06,05,11,45,15.40
2007,06,05,11,46,15.50
2007,06,05,11,47,15.60
2007,06,05,11,48,15.70
2007,06,05,11,49,15.70
2007,06,05,11,50,15.80
2007,06,05,11,51,15.80
2007,06,05,11,52,15.90
2007,06,05,11,53,15.80
2007,06,05,11,54,15.80
2007,06,05,11,55,15.80
2007,06,05,11,56,15.80
2007,06,05,11,57,15.80
2007,06,05,11,58,15.80
2007,06,05,11,59,15.80
2007,06,05,12,00,15.80
2007,06,05,12,01,15.90
2007,06,05,12,02,15.90
2007,06,05,12,03,15.90
2007,06,05,12,04,16.00
2007,06,05,12,05,16.00
2007,06,05,12,06,16.10
2007,06,05,12,07,16.20
2007,06,05,12,08,16.20
2007,06,05,12,09,16.30
2007,06,05,12,10,16.30
2007,06,05,12,11,16.40
2007,06,05,12,12,16.40
2007,06,05,12,13,16.50
2007,06,05,12,14,16.50
2007,06,05,12,15,16.50
2007,06,05,12,16,16.50
2007,06,05,12,17,16.50
2007,06,05,12,18,16.60
2007,06,05,12,19,16.60
2007,06,05,12,20,16.70
2007,06,05,12,21,16.70
2007,06,05,12,22,16.70
2007,06,05,12,23,16.70
2007,06,05,12,24,16.60
2007,06,05,12,25,16.60
2007,06,05,12,26,16.60
2007,06,05,12,27,16.60
2007,06,05,12,28,16.60
2007,06,05,12,29,16.60
2007,06,05,12,30,16.50
2007,06,05,12,31,16.50
2007,06,05,12,32,16.50
2007,06,05,12,33,16.50
2007,06,05,12,34,16.50
2007,06,05,12,35,16.50
2007,06,05,12,36,16.50
2007,06,05,12,37,16.60
2007,06,05,12,38,16.70
2007,06,05,12,39,16.80
2007,06,05,12,40,16.70
2007,06,05,12,41,16.70
2007,06,05,12,42,16.70
2007,06,05,12,43,16.70
2007,06,05,12,44,16.70
2007,06,05,12,45,16.70
2007,06,05,12,46,16.70
2007,06,05,12,47,16.60
2007,06,05,12,48,16.50
2007,06,05,12,49,16.40
2007,06,05,12,50,16.30
2007,06,05,12,51,16.30
2007,06,05,12,52,16.30
2007,06,05,12,53,16.40
2007,06,05,12,54,16.40
2007,06,05,12,55,16.50
2007,06,05,12,56,16.70
2007,06,05,12,57,16.80
2007,06,05,12,58,16.80
2007,06,05,12,59,16.80
2007,06,05,13,00,16.80
2007,06,05,13,01,16.80
2007,06,05,13,02,16.80
2007,06,05,13,03,16.80
2007,06,05,13,04,16.80
2007,06,05,13,05,16.80
2007,06,05,13,06,16.80
2007,06,05,13,07,16.80
2007,06,05,13,08,16.80
2007,06,05,13,09,16.90
2007,06,05,13,10,17.00
2007,06,05,13,11,17.10
2007,06,05,13,12,17.10
2007,06,05,13,13,17.10
2007,06,05,13,14,17.20
2007,06,05,13,15,17.20
2007,06,05,13,16,17.30
2007,06,05,13,17,17.30
2007,06,05,13,18,17.40
2007,06,05,13,19,17.40
2007,06,05,13,20,17.40
2007,06,05,13,21,17.40
2007,06,05,13,22,17.40
2007,06,05,13,23,17.30
2007,06,05,13,24,17.20
2007,06,05,13,25,17.20
2007,06,05,13,26,17.20
2007,06,05,13,27,17.20
2007,06,05,13,28,17.20
2007,06,05,13,29,17.30
2007,06,05,13,30,17.40
2007,06,05,13,31,17.60
2007,06,05,13,32,17.80
2007,06,05,13,33,17.80
2007,06,05,13,34,17.80
2007,06,05,13,35,17.80
2007,06,05,13,36,17.90
2007,06,05,13,37,17.90
2007,06,05,13,38,17.90
2007,06,05,13,39,18.00
2007,06,05,13,40,18.00
2007,06,05,13,41,17.90
2007,06,05,13,42,17.90
2007,06,05,13,43,17.80
2007,06,05,13,44,17.80
2007,06,05,13,45,17.80
2007,06,05,13,46,17.90
2007,06,05,13,47,18.00
2007,06,05,13,48,18.10
2007,06,05,13,49,18.20
2007,06,05,13,50,18.20
2007,06,05,13,51,18.20
2007,06,05,13,52,18.30
2007,06,05,13,53,18.30
2007,06,05,13,54,18.30
2007,06,05,13,55,18.30
2007,06,05,13,56,18.30
2007,06,05,13,57,18.30
2007,06,05,13,58,18.30
2007,06,05,13,59,18.20
2007,06,05,14,00,18.10
2007,06,05,14,01,18.00
2007,06,05,14,02,17.90
2007,06,05,14,03,17.90
2007,06,05,14,04,18.00
2007,06,05,14,05,18.10
2007,06,05,14,06,18.20
2007,06,05,14,07,18.30
2007,06,05,14,08,18.30
2007,06,05,14,09,18.30
2007,06,05,14,10,18.30
2007,06,05,14,11,18.30
2007,06,05,14,12,18.20
2007,06,05,14,13,18.20
2007,06,05,14,14,18.20
2007,06,05,14,15,18.20
2007,06,05,14,16,18.30
2007,06,05,14,17,18.30
2007,06,05,14,18,18.30
2007,06,05,14,19,18.40
2007,06,05,14,20,18.40
2007,06,05,14,21,18.40
2007,06,05,14,22,18.40
2007,06,05,14,23,18.40
2007,06,05,14,24,18.40
2007,06,05,14,25,18.40
2007,06,05,14,26,18.40
2007,06,05,14,27,18.30
2007,06,05,14,28,18.30
2007,06,05,14,29,18.20
2007,06,05,14,30,18.20
2007,06,05,14,31,18.20
2007,06,05,14,32,18.30
2007,06,05,14,33,18.30
2007,06,05,14,34,18.30
2007,06,05,14,35,18.50
2007,06,05,14,36,18.60
2007,06,05,14,37,18.70
2007,06,05,14,38,18.60
2007,06,05,14,39,18.60
2007,06,05,14,40,18.50
2007,06,05,14,41,18.50
2007,06,05,14,42,18.50
2007,06,05,14,43,18.40
2007,06,05,14,44,18.30
2007,06,05,14,45,18.20
2007,06,05,14,46,18.20
2007,06,05,14,47,18.20
2007,06,05,14,48,18.10
2007,06,05,14,49,17.90
2007,06,05,14,50,17.90
2007,06,05,14,51,17.90
2007,06,05,14,52,17.90
2007,06,05,14,53,18.00
2007,06,05,14,54,18.00
2007,06,05,14,55,18.10
2007,06,05,14,56,18.20
2007,06,05,14,57,18.20
2007,06,05,14,58,18.20
2007,06,05,14,59,18.20
2007,06,05,15,00,18.20
2007,06,05,15,01,18.20
2007,06,05,15,02,18.20
2007,06,05,15,03,18.30
2007,06,05,15,04,18.20
2007,06,05,15,05,18.20
2007,06,05,15,06,18.20
2007,06,05,15,07,18.10
2007,06,05,15,08,18.10
2007,06,05,15,09,18.10
2007,06,05,15,10,18.10
2007,06,05,15,11,18.00
2007,06,05,15,12,17.90
2007,06,05,15,13,17.90
2007,06,05,15,14,17.90
2007,06,05,15,15,17.90
2007,06,05,15,16,17.80
2007,06,05,15,17,17.80
2007,06,05,15,18,17.70
2007,06,05,15,19,17.70
2007,06,05,15,20,17.60
2007,06,05,15,21,17.60
2007,06,05,15,22,17.60
2007,06,05,15,23,17.70
2007,06,05,15,24,17.70
2007,06,05,15,25,17.70
2007,06,05,15,26,17.70
2007,06,05,15,27,17.70
2007,06,05,15,28,17.80
2007,06,05,15,29,17.70
2007,06,05,15,30,17.70
2007,06,05,15,31,17.70
2007,06,05,15,32,17.70
2007,06,05,15,33,17.60
2007,06,05,15,34,17.50
2007,06,05,15,35,17.50
2007,06,05,15,36,17.40
2007,06,05,15,37,17.40
2007,06,05,15,38,17.40
2007,06,05,15,39,17.40
2007,06,05,15,40,17.40
2007,06,05,15,41,17.40
2007,06,05,15,42,17.40
2007,06,05,15,43,17.50
2007,06,05,15,44,17.50
2007,06,05,15,45,17.50
2007,06,05,15,46,17.40
2007,06,05,15,47,17.40
2007,06,05,15,48,17.40
2007,06,05,15,49,17.40
2007,06,05,15,50,17.30
2007,06,05,15,51,17.30
2007,06,05,15,52,17.30
2007,06,05,15,53,17.30
2007,06,05,15,54,17.30
2007,06,05,15,55,17.30
2007,06,05,15,56,17.30
2007,06,05,15,57,17.30
2007,06,05,15,58,17.30
2007,06,05,15,59,17.30
2007,06,05,16,00,17.30
2007,06,05,16,01,17.30
2007,06,05,16,02,17.30
2007,06,05,16,03,17.40
2007,06,05,16,04,17.40
2007,06,05,16,05,17.50
2007,06,05,16,06,17.50
2007,06,05,16,07,17.60
2007,06,05,16,08,17.70
2007,06,05,16,09,17.70
2007,06,05,16,10,17.60
2007,06,05,16,11,17.60
2007,06,05,16,12,17.40
2007,06,05,16,13,17.30
2007,06,05,16,14,17.30
2007,06,05,16,15,17.20
2007,06,05,16,16,17.10
2007,06,05,16,17,17.10
2007,06,05,16,18,17.10
2007,06,05,16,19,17.10
2007,06,05,16,20,17.20
2007,06,05,16,21,17.30
2007,06,05,16,22,17.30
2007,06,05,16,23,17.30
2007,06,05,16,24,17.30
2007,06,05,16,25,17.30
2007,06,05,16,26,17.20
2007,06,05,16,27,17.10
2007,06,05,16,28,17.10
2007,06,05,16,29,17.10
2007,06,05,16,30,17.10
2007,06,05,16,31,17.10
2007,06,05,16,32,17.20
2007,06,05,16,33,17.20
2007,06,05,16,34,17.20
2007,06,05,16,35,17.30
2007,06,05,16,36,17.20
2007,06,05,16,37,17.20
2007,06,05,16,38,17.30
2007,06,05,16,39,17.30
2007,06,05,16,40,17.20
2007,06,05,16,41,17.10
2007,06,05,16,42,17.00
2007,06,05,16,43,17.00
2007,06,05,16,44,17.10
2007,06,05,16,45,17.10
2007,06,05,16,46,17.20
2007,06,05,16,47,17.20
2007,06,05,16,48,17.10
2007,06,05,16,49,17.10
2007,06,05,16,50,17.10
2007,06,05,16,51,17.10
2007,06,05,16,52,17.00
2007,06,05,16,53,17.00
2007,06,05,16,54,17.00
2007,06,05,16,55,17.00
2007,06,05,16,56,17.00
2007,06,05,16,57,17.00
2007,06,05,16,58,17.00
2007,06,05,16,59,16.90
2007,06,05,17,00,16.90
2007,06,05,17,01,16.80
2007,06,05,17,02,16.80
2007,06,05,17,03,16.80
2007,06,05,17,04,16.80
2007,06,05,17,05,16.80
2007,06,05,17,06,16.80
2007,06,05,17,07,16.80
2007,06,05,17,08,16.80
2007,06,05,17,09,16.80
2007,06,05,17,10,16.70
2007,06,05,17,11,16.70
2007,06,05,17,12,16.70
2007,06,05,17,13,16.60
2007,06,05,17,14,16.60
2007,06,05,17,15,16.60
2007,06,05,17,16,16.60
2007,06,05,17,17,16.70
2007,06,05,17,18,16.70
2007,06,05,17,19,16.70